Wind_Speed
24 23 22 20 20 19 18 17 16 16 16 15 15 16 16 17 18 19 20 21 22 23 24 26 27 28 30 31 32 33 34 34 35 36 36 37 38 38 39 39 39 40 40
26 25 23 22 21 20 19 18 18 17 17 17 17 17 18 19 19 20 21 22 23 25 26 27 29 30 31 32 33 34 35 36 37 37 38 38 39 40 40 41 41 41 41
28 26 24 23 22 21 20 20 19 18 18 18 18 19 19 20 21 22 22 23 24 26 27 29 30 31 33 34 35 36 37 37 38 38 39 40 41 42 42 43 43 43 42
29 28 26 25 23 22 21 21 20 19 19 19 19 20 21 22 22 23 24 25 26 27 29 30 32 33 34 35 36 37 38 39 39 40 40 41 42 43 44 44 44 44 44
30 29 28 26 24 23 23 22 21 21 21 21 21 22 23 23 24 24 25 26 27 29 30 32 33 35 36 37 38 38 39 40 40 41 42 43 44 45 45 46 46 46 46
31 30 29 28 26 25 24 24 23 23 23 23 23 24 24 25 25 26 27 28 29 30 32 33 35 36 37 38 39 40 40 41 41 42 43 44 45 46 47 47 47 47 48
33 32 30 29 28 27 26 25 25 24 24 25 25 25 26 26 27 27 28 29 31 32 34 35 36 38 39 40 40 41 42 42 43 43 44 46 47 48 48 49 49 50 50
34 33 32 31 30 28 27 26 26 26 26 26 26 27 27 28 28 29 30 31 32 34 35 37 38 39 40 41 41 42 43 44 44 45 46 47 48 49 50 51 52 53 53
36 35 33 32 31 30 29 28 27 27 27 28 28 28 29 29 30 31 32 33 34 36 37 38 39 40 41 42 42 43 44 45 45 46 48 49 50 51 52 53 54 55 55
37 36 35 34 33 32 30 30 29 29 29 29 29 30 31 31 32 32 33 34 36 37 38 39 41 41 42 43 44 45 45 46 47 48 49 51 52 52 53 54 55 55 54
38 37 37 36 35 33 32 31 31 30 30 31 31 31 32 32 33 34 34 36 37 38 39 40 41 42 43 44 45 46 46 47 48 49 51 52 52 53 54 54 55 54 53
39 38 38 37 36 35 34 33 33 32 32 33 33 33 33 34 34 35 36 37 38 39 40 41 42 43 44 45 45 46 47 48 49 51 52 52 53 53 54 54 54 54 54
40 40 39 38 37 36 36 35 34 34 34 34 34 34 34 35 36 37 38 38 40 41 41 42 44 44 45 46 46 47 47 49 51 52 52 53 53 54 54 54 54 54 54
41 41 40 39 38 38 37 37 36 36 36 35 35 35 35 36 36 38 39 40 41 41 42 43 44 45 46 46 47 47 48 50 51 52 52 53 54 53 54 54 54 54 54
43 42 41 41 40 39 39 38 38 37 37 36 36 36 36 37 37 38 40 41 42 42 42 44 45 46 46 47 47 48 49 51 52 52 52 53 53 53 53 54 54 55 55
44 43 42 42 41 40 40 39 38 38 38 37 37 38 38 38 39 40 41 42 43 43 43 44 45 46 46 47 48 49 51 52 52 51 52 53 52 53 53 54 55 55 54
45 45 44 43 42 41 41 40 39 39 38 38 38 38 39 39 40 41 42 43 43 43 43 44 45 46 47 47 48 49 51 51 51 51 52 51 51 52 53 55 55 55 53
46 46 45 44 43 42 41 41 40 40 40 39 39 39 40 41 41 42 42 42 43 44 44 44 45 46 47 48 49 50 51 51 51 51 50 50 51 52 54 55 55 54 53
47 46 46 44 43 43 42 41 41 40 40 40 40 40 40 41 41 42 42 43 44 44 44 44 45 46 47 48 49 50 50 51 50 50 50 50 51 53 54 55 55 54 54
48 47 46 45 44 43 43 42 41 40 40 40 40 40 40 41 41 42 42 43 44 44 44 44 45 46 47 47 48 48 49 50 49 50 50 50 52 53 55 55 55 55 55
50 49 48 47 46 44 43 42 42 41 40 40 40 40 41 41 41 42 43 44 44 44 45 45 46 46 46 46 47 47 48 49 48 49 50 51 52 54 55 55 55 55 55
51 51 50 49 47 45 44 43 43 42 42 41 41 41 41 41 42 43 44 44 45 45 45 45 46 46 46 46 46 47 48 48 48 48 50 51 53 54 55 55 55 55 56
52 51 50 50 48 47 45 44 43 42 42 42 41 41 40 41 42 43 44 44 44 45 45 45 45 45 44 45 46 47 47 47 47 48 50 51 53 54 55 56 56 56 56
51 50 50 50 49 47 46 44 43 43 43 42 41 41 41 42 43 43 43 44 43 44 44 44 43 44 44 44 45 46 46 47 47 49 50 51 52 54 55 56 56 56 56
51 51 51 50 49 48 46 45 44 44 43 42 42 42 42 42 42 43 43 43 43 43 43 43 43 43 43 43 45 45 46 46 47 48 49 51 52 54 55 56 56 56 55
52 52 51 50 50 48 46 45 44 44 43 42 42 42 41 42 42 43 43 43 43 42 42 42 42 42 42 43 44 45 45 46 47 48 49 51 52 53 55 55 55 55 54
Wind_Direction
233 234 235 238 240 242 245 248 251 255 261 269 278 286 291 296 301 305 309 312 314 316 318 318 319 320 321 321 321 321 321 320 320 319 318 318 317 316 316 315 314 312 310
233 233 235 238 240 242 245 248 252 256 263 270 278 285 290 294 298 302 306 309 312 314 315 317 317 318 319 319 319 320 319 319 318 318 317 316 316 315 315 314 313 311 309
232 233 235 238 240 242 245 248 252 257 264 271 278 284 289 293 297 300 304 307 310 312 314 315 316 316 317 318 318 318 318 318 317 317 316 316 315 315 315 314 312 310 309
232 233 234 237 240 243 245 249 253 258 265 271 277 282 287 292 296 299 302 305 308 310 312 313 314 315 315 316 317 317 317 317 316 316 316 315 315 315 314 313 312 310 308
232 233 234 237 240 243 247 250 255 260 266 272 277 281 286 290 294 298 300 303 306 308 310 312 313 314 314 315 316 316 316 316 315 315 315 315 315 314 313 312 311 310 308
232 233 235 237 241 244 248 252 256 261 267 272 276 281 285 290 293 296 299 301 304 306 308 310 312 313 314 314 314 315 315 315 315 314 315 315 315 314 313 312 311 309 308
233 233 235 237 241 245 248 253 258 262 267 272 276 281 285 289 292 295 298 301 303 305 307 309 311 312 313 313 314 314 314 314 314 314 314 314 314 314 313 311 310 309 307
233 233 235 237 241 245 248 253 258 263 267 271 276 281 284 288 292 295 298 300 303 304 306 308 310 311 312 312 313 313 313 313 313 313 314 314 314 313 312 311 310 309 308
234 233 235 238 241 245 249 254 258 263 267 272 276 280 284 287 291 295 298 300 302 304 305 307 309 310 311 311 312 312 312 312 313 313 313 314 314 313 313 312 311 310 309
234 235 236 238 242 245 250 254 259 263 267 272 276 279 283 287 291 294 297 299 301 303 305 306 308 309 310 311 311 312 312 312 313 313 313 314 314 314 313 313 312 312 311
236 236 237 239 242 246 250 255 259 264 268 271 275 279 282 286 290 293 296 299 302 304 305 306 308 309 309 310 311 311 312 312 313 313 314 314 314 314 314 314 313 313 312
237 238 240 242 244 247 251 255 259 264 268 271 275 278 282 286 290 293 296 299 301 304 305 306 307 308 309 309 310 311 311 312 313 314 314 314 315 315 315 315 314 314 313
237 239 241 244 246 249 252 256 259 264 268 271 275 278 282 286 289 292 296 298 301 303 304 305 307 308 308 309 310 311 311 312 314 314 314 315 316 316 315 315 315 315 315
238 240 242 244 247 250 253 256 259 263 267 271 274 278 282 285 289 293 296 298 301 302 304 305 305 306 307 308 309 310 311 313 314 314 315 316 316 316 316 316 316 316 316
239 241 243 245 248 251 254 257 260 263 267 270 274 277 281 285 289 293 295 298 300 301 303 304 304 306 308 309 310 311 312 314 315 315 315 316 316 317 317 318 318 318 317
239 242 244 246 249 252 255 258 260 264 267 270 274 277 281 285 289 292 294 297 299 300 302 303 305 306 307 308 310 311 312 314 315 315 315 316 317 317 318 319 319 318 318
240 242 244 247 249 252 255 258 261 264 268 271 274 277 281 285 288 291 293 296 297 299 301 303 304 306 307 308 309 311 313 314 315 315 316 317 317 318 319 320 320 319 319
241 242 244 247 250 253 256 259 261 265 268 271 274 277 281 285 288 291 293 294 296 298 301 303 304 306 307 308 309 311 313 314 315 316 317 318 318 319 320 321 321 320 319
241 243 245 247 250 253 257 259 262 265 268 271 274 278 281 284 287 290 292 294 296 298 301 303 304 305 306 307 309 312 314 316 316 317 318 318 319 320 321 321 321 321 321
241 243 245 248 251 254 257 259 263 265 268 271 274 278 281 283 287 289 291 293 295 298 300 302 304 305 306 307 310 312 314 316 317 317 318 319 320 321 322 322 322 322 321
242 243 245 248 251 254 257 260 262 265 267 271 275 278 280 283 286 289 291 293 294 296 299 302 303 305 306 308 310 312 314 316 317 317 319 319 320 321 322 322 322 322 322
241 243 246 248 251 254 257 260 262 264 267 271 274 277 279 282 286 288 290 292 294 296 299 301 303 304 306 308 311 313 315 316 317 318 318 320 321 321 322 323 323 323 323
241 243 246 248 250 253 255 258 261 264 268 271 274 277 279 283 286 289 291 292 294 297 299 301 303 306 307 309 311 314 315 316 317 318 319 320 321 322 323 323 324 324 324
241 243 245 247 249 252 254 257 260 263 267 270 273 276 280 282 285 288 290 292 294 297 299 300 303 305 306 309 311 314 316 316 317 318 319 321 322 323 324 324 324 325 325
241 243 245 247 249 250 253 256 259 262 266 269 272 275 279 282 285 287 289 292 294 296 297 300 303 305 307 309 312 314 315 316 317 319 320 321 323 324 324 325 325 326 326
241 243 245 247 249 251 253 255 258 261 264 268 271 275 278 282 284 286 288 290 293 295 297 301 303 305 307 310 313 314 315 316 317 318 320 321 323 324 325 326 326 327 327
Height
5835 5836 5838 5839 5839 5840 5841 5841 5841 5841 5840 5840 5839 5838 5837 5835 5833 5831 5829 5826 5824 5821 5818 5814 5811 5807 5804 5800 5796 5791 5787 5782 5778 5773 5769 5764 5759 5754 5749 5744 5739 5735 5730
5830 5832 5833 5834 5835 5836 5836 5837 5837 5837 5837 5836 5835 5834 5833 5831 5829 5827 5825 5822 5819 5816 5813 5810 5806 5802 5799 5795 5790 5786 5781 5777 5772 5767 5762 5758 5753 5747 5742 5737 5732 5727 5722
5825 5827 5828 5830 5831 5831 5832 5833 5833 5833 5832 5832 5831 5830 5829 5827 5825 5823 5820 5818 5815 5812 5808 5805 5801 5797 5793 5789 5785 5780 5775 5771 5766 5761 5756 5751 5745 5740 5735 5729 5724 5719 5714
5819 5821 5823 5825 5826 5827 5827 5828 5828 5828 5828 5827 5826 5825 5824 5822 5820 5818 5815 5813 5810 5807 5803 5800 5796 5792 5788 5783 5779 5774 5769 5764 5759 5754 5748 5743 5738 5732 5727 5721 5716 5710 5705
5813 5815 5818 5819 5820 5822 5822 5823 5823 5823 5823 5822 5822 5820 5819 5817 5815 5813 5810 5808 5805 5801 5798 5794 5790 5786 5782 5777 5772 5768 5762 5757 5752 5747 5741 5735 5730 5724 5718 5712 5707 5701 5695
5807 5809 5812 5813 5815 5816 5817 5818 5818 5818 5818 5817 5816 5815 5814 5812 5810 5808 5805 5802 5799 5796 5792 5788 5784 5780 5775 5771 5766 5761 5755 5750 5745 5739 5733 5728 5722 5715 5709 5703 5697 5691 5685
5800 5803 5805 5807 5809 5810 5811 5812 5812 5812 5812 5812 5811 5810 5808 5806 5804 5802 5799 5796 5793 5790 5786 5782 5778 5773 5769 5764 5759 5754 5748 5743 5737 5731 5725 5719 5713 5707 5700 5694 5687 5681 5674
5793 5796 5799 5801 5802 5804 5805 5806 5806 5806 5806 5806 5805 5804 5802 5801 5798 5796 5793 5790 5787 5783 5780 5775 5771 5766 5762 5757 5752 5746 5740 5735 5729 5723 5717 5710 5704 5697 5690 5683 5676 5669 5662
5786 5789 5792 5794 5796 5797 5798 5799 5800 5800 5800 5800 5799 5798 5796 5795 5792 5790 5787 5783 5780 5777 5773 5768 5764 5759 5754 5749 5744 5738 5733 5727 5720 5714 5708 5701 5694 5687 5679 5672 5665 5657 5650
5779 5782 5784 5787 5789 5791 5792 5793 5793 5793 5793 5793 5792 5791 5790 5788 5786 5783 5780 5777 5773 5769 5765 5761 5756 5752 5746 5741 5736 5730 5724 5718 5712 5705 5698 5691 5684 5676 5668 5661 5653 5645 5637
5771 5774 5777 5779 5782 5784 5785 5786 5786 5787 5787 5786 5785 5784 5783 5781 5778 5776 5773 5770 5766 5762 5758 5753 5749 5744 5739 5733 5728 5722 5716 5710 5703 5696 5689 5681 5673 5665 5657 5649 5641 5633 5625
5763 5767 5769 5772 5774 5776 5778 5778 5779 5779 5779 5779 5778 5777 5776 5774 5771 5769 5766 5762 5759 5755 5750 5745 5741 5736 5730 5725 5719 5713 5707 5701 5694 5686 5679 5671 5663 5655 5646 5638 5629 5621 5613
5756 5759 5762 5764 5767 5768 5770 5771 5771 5772 5772 5772 5771 5770 5768 5766 5764 5761 5758 5755 5751 5747 5742 5737 5732 5727 5722 5716 5711 5705 5698 5692 5684 5677 5669 5661 5653 5644 5636 5627 5619 5610 5601
5747 5750 5753 5756 5758 5760 5762 5763 5764 5764 5764 5764 5763 5762 5761 5759 5756 5754 5750 5747 5743 5739 5734 5730 5724 5718 5713 5708 5702 5696 5689 5682 5675 5667 5659 5650 5642 5634 5625 5617 5608 5599 5590
5738 5742 5745 5747 5750 5752 5753 5755 5756 5756 5756 5756 5755 5754 5753 5751 5748 5746 5742 5739 5735 5731 5727 5721 5716 5710 5704 5699 5693 5686 5680 5673 5665 5657 5649 5640 5632 5623 5615 5606 5597 5588 5579
5729 5733 5736 5738 5741 5743 5745 5746 5748 5748 5748 5748 5747 5746 5745 5743 5740 5737 5734 5730 5726 5722 5718 5713 5707 5701 5696 5690 5683 5677 5670 5663 5655 5647 5639 5630 5621 5613 5604 5596 5587 5577 5568
5720 5723 5727 5729 5732 5734 5736 5738 5739 5739 5740 5739 5739 5738 5736 5734 5732 5729 5725 5722 5718 5713 5709 5704 5699 5693 5687 5681 5674 5667 5660 5653 5645 5637 5629 5620 5612 5603 5595 5586 5576 5567 5557
5710 5714 5717 5720 5723 5725 5727 5729 5730 5730 5731 5730 5730 5729 5727 5725 5723 5720 5717 5713 5709 5704 5700 5696 5690 5684 5678 5671 5665 5658 5650 5643 5635 5627 5619 5611 5602 5594 5585 5576 5566 5556 5547
5700 5703 5707 5710 5713 5716 5718 5719 5720 5721 5721 5721 5721 5720 5718 5716 5714 5711 5708 5704 5700 5696 5691 5687 5681 5675 5669 5662 5655 5648 5640 5633 5625 5617 5609 5601 5593 5585 5575 5566 5556 5546 5537
5689 5693 5697 5700 5703 5706 5708 5710 5711 5712 5712 5712 5711 5710 5709 5707 5705 5702 5698 5695 5691 5687 5682 5677 5672 5666 5660 5653 5646 5639 5631 5623 5615 5607 5600 5592 5584 5575 5566 5556 5547 5536 5526
5679 5683 5686 5690 5693 5696 5698 5700 5701 5702 5702 5702 5702 5701 5699 5697 5695 5692 5689 5685 5682 5677 5673 5668 5663 5657 5650 5644 5637 5630 5623 5615 5607 5598 5590 5583 5575 5566 5556 5546 5536 5526 5516
5668 5672 5676 5680 5683 5686 5689 5690 5691 5692 5693 5693 5692 5691 5690 5688 5686 5683 5679 5676 5672 5668 5664 5659 5654 5648 5641 5635 5628 5621 5614 5607 5600 5592 5582 5574 5565 5556 5546 5537 5526 5516 5505
5657 5661 5665 5669 5673 5676 5678 5680 5681 5682 5683 5683 5682 5681 5680 5678 5676 5673 5670 5666 5663 5658 5654 5650 5644 5639 5633 5626 5620 5613 5604 5596 5590 5582 5573 5565 5555 5546 5537 5527 5516 5506 5495
5645 5650 5654 5658 5661 5665 5667 5669 5670 5671 5672 5672 5672 5672 5671 5669 5666 5663 5660 5657 5653 5649 5645 5640 5636 5630 5624 5617 5611 5604 5596 5588 5581 5573 5564 5556 5547 5537 5527 5517 5507 5496 5485
5634 5638 5642 5646 5650 5653 5656 5658 5659 5660 5661 5662 5662 5662 5660 5659 5656 5653 5650 5647 5643 5639 5635 5631 5626 5620 5614 5608 5602 5595 5587 5580 5573 5565 5556 5548 5539 5529 5518 5507 5497 5486 5475
5622 5626 5630 5635 5638 5642 5645 5647 5648 5649 5651 5652 5652 5651 5650 5648 5646 5643 5640 5637 5634 5630 5626 5622 5617 5612 5606 5600 5593 5586 5579 5571 5564 5557 5548 5539 5530 5521 5511 5500 5488 5478 5467